Theta_e
288 288 288 288 288 288 288 288 288 288 288 288 288 288 288 288 288 288 287 287 286 286 285 284 284 283 283 283 283 283 284 284 284 284 284 283 280 278 277 276 276 276 276 276 275 274 275 276 276 277 278 278 278 278 279 281 281 282 283 284 285 288 290 292 294 296 296 296 295 295 295 296 298 298 298 299 300 302 303 306 311 316 321 324 323
288 288 288 288 288 287 287 287 287 287 287 288 288 288 288 288 287 287 287 286 285 285 284 284 283 283 283 283 284 284 284 284 284 284 284 283 281 278 275 275 275 275 274 274 275 274 274 275 276 276 277 277 277 277 278 279 280 281 281 283 284 286 289 291 293 295 296 295 295 295 295 296 297 297 297 297 299 301 302 304 307 312 318 322 323
288 288 288 287 287 287 287 287 287 287 287 288 288 288 288 287 287 286 286 285 285 284 284 283 283 283 284 284 284 284 284 284 284 284 283 282 280 278 275 274 274 274 273 273 273 273 274 274 275 276 276 276 276 276 276 277 279 279 280 282 283 286 289 291 293 295 295 295 295 295 295 296 297 298 297 297 298 299 302 304 307 310 314 320 322
288 288 287 287 287 287 287 287 287 287 287 287 288 287 287 287 286 286 285 285 284 283 283 283 283 284 284 284 284 284 284 284 284 283 282 281 279 278 276 273 272 272 272 272 272 272 273 273 274 275 275 275 276 276 276 276 277 278 279 281 283 285 288 291 293 295 295 295 296 296 296 297 298 298 299 299 297 298 301 305 306 308 313 320 322
288 287 287 287 287 287 287 287 287 287 287 287 287 287 287 286 285 285 284 284 283 283 283 283 283 284 284 284 284 284 284 284 284 283 282 280 278 277 275 273 271 270 271 271 271 271 272 273 273 274 275 275 275 275 275 275 276 278 279 281 283 286 288 291 293 295 296 296 296 296 296 297 298 298 299 299 298 298 301 304 305 306 313 321 322
287 287 287 287 287 287 287 287 287 287 287 287 287 287 286 285 285 284 283 283 283 283 283 283 283 284 284 283 283 283 284 283 283 282 281 279 278 276 273 271 269 269 270 270 270 271 271 272 273 273 274 275 275 275 275 275 275 277 279 281 283 286 287 290 292 295 296 296 296 296 296 297 298 298 298 299 300 300 301 304 306 306 312 321 321
287 287 287 287 287 287 287 287 287 287 287 287 287 286 285 285 284 283 283 282 282 283 283 283 283 283 283 283 283 283 284 283 283 281 280 279 276 273 270 269 268 269 269 270 270 271 271 272 272 273 273 274 274 274 275 275 275 277 278 280 283 285 287 288 291 294 296 296 296 296 297 297 297 297 297 298 300 301 301 303 305 307 313 321 320
287 287 287 287 287 287 287 287 287 287 287 287 286 285 285 284 283 283 282 282 282 283 283 283 283 283 283 283 283 283 283 283 282 280 278 276 272 269 268 268 269 269 270 270 271 272 272 273 273 273 273 274 274 274 275 275 275 277 279 280 282 285 286 288 290 292 294 295 296 296 297 297 297 297 298 298 299 300 301 302 304 308 317 322 320
287 287 287 287 287 287 287 287 287 287 287 286 285 285 284 283 283 282 282 282 282 283 283 283 283 283 283 283 283 283 282 281 279 276 273 271 269 268 269 269 270 270 271 271 272 273 273 273 273 274 274 274 274 274 275 275 275 277 279 281 282 284 286 288 290 292 294 294 295 296 297 297 296 297 298 299 299 300 301 302 302 308 318 322 320
287 287 287 287 287 287 287 287 287 287 286 286 285 284 284 283 282 282 282 282 282 283 283 283 283 283 283 283 282 282 281 279 276 272 270 269 269 270 270 270 271 271 272 272 273 273 273 274 274 274 274 274 275 275 275 276 276 277 279 280 281 283 285 287 288 291 293 294 294 295 296 296 296 297 298 299 300 300 301 302 302 307 317 320 320
287 287 287 287 287 287 287 287 287 286 286 285 285 284 283 282 282 281 281 282 282 283 283 283 283 283 282 282 281 280 278 277 274 271 268 268 270 270 270 271 272 272 273 273 273 274 274 274 274 275 275 275 275 275 276 276 277 278 279 280 281 282 284 285 286 289 291 292 293 294 295 295 295 296 297 298 299 300 301 302 301 306 317 319 318
287 287 287 287 287 287 287 287 286 286 285 285 284 283 282 281 281 281 281 282 282 282 283 283 282 282 281 280 279 278 277 275 272 269 268 268 269 270 271 271 272 272 273 274 274 274 274 275 275 275 276 275 275 276 276 276 277 278 279 280 281 282 283 284 286 288 290 291 292 293 294 294 295 296 296 297 298 299 301 302 301 306 316 319 316
287 287 287 287 287 287 287 287 286 285 285 284 283 282 282 281 281 281 282 282 282 282 282 282 282 281 280 279 278 277 276 274 271 268 268 269 270 270 271 271 272 273 273 274 275 275 275 275 276 276 276 276 276 276 277 277 277 277 278 280 281 283 284 285 286 287 289 291 291 292 294 294 294 295 296 296 297 298 300 302 301 305 314 318 316
287 287 287 287 287 287 287 286 286 285 284 284 283 282 281 281 280 281 282 282 282 282 282 281 281 280 279 278 277 277 275 273 270 268 268 269 270 271 272 272 272 273 274 274 275 275 276 276 276 277 277 277 277 277 277 277 277 277 278 280 282 284 285 286 287 288 289 290 290 292 293 293 293 295 295 295 296 297 299 301 301 304 313 318 317
287 287 287 287 287 287 286 285 285 285 284 283 282 281 281 280 280 281 281 282 281 281 281 281 280 279 278 277 277 276 274 272 270 268 269 270 271 271 272 272 272 273 274 274 275 276 276 277 277 277 277 278 278 278 277 277 277 277 278 280 282 283 285 287 287 288 290 290 290 291 292 293 293 294 294 294 295 296 298 300 300 303 311 318 317
287 287 287 287 287 286 286 285 285 284 283 282 281 281 280 280 280 281 281 281 281 280 280 280 279 278 277 276 275 275 274 272 270 269 269 270 271 271 272 272 273 273 274 274 275 275 276 277 277 277 277 278 279 279 278 278 278 278 278 279 281 283 285 287 288 289 290 290 291 291 292 293 293 294 294 294 294 295 296 298 299 301 308 316 316
287 287 287 287 287 286 285 285 284 283 283 282 281 280 280 280 280 281 281 281 280 280 279 279 278 277 276 275 274 274 274 272 270 270 269 270 271 271 272 272 272 273 273 273 274 275 276 276 277 277 278 278 279 279 279 279 279 278 278 279 281 283 285 287 289 290 290 290 291 291 292 292 292 293 293 293 294 295 295 297 298 300 306 314 316
287 287 287 287 286 285 284 284 284 283 282 281 280 280 280 280 280 280 280 280 279 279 279 278 277 276 275 274 273 272 272 271 270 270 269 270 271 271 271 272 272 272 272 273 274 274 275 275 276 277 278 279 279 280 280 279 279 279 279 280 281 283 285 287 288 289 290 290 291 291 291 291 292 292 293 293 294 295 294 296 298 299 303 312 316
287 287 287 286 285 284 284 283 283 282 281 280 279 279 279 279 280 279 279 279 278 278 278 278 277 276 275 274 272 271 270 269 269 269 269 270 271 271 271 271 272 272 272 273 273 274 274 275 276 277 278 279 280 280 281 280 280 280 280 280 282 283 285 286 287 288 289 289 290 290 290 291 291 292 293 293 294 295 295 296 298 297 301 311 316
287 287 286 285 284 283 283 283 282 281 280 279 279 279 279 279 279 279 278 278 277 277 277 277 277 275 274 273 272 270 269 269 269 269 269 270 271 271 271 271 271 272 272 273 273 274 274 275 275 276 277 278 279 280 281 282 281 281 281 281 282 283 284 285 286 287 288 289 289 290 290 290 291 291 292 293 294 295 296 296 298 298 301 309 316
287 286 286 284 283 283 283 282 281 280 279 279 279 279 279 279 278 278 277 277 277 277 277 277 275 273 272 271 271 270 269 268 269 269 270 270 271 271 271 271 272 272 272 273 274 274 274 275 275 275 276 277 278 279 281 282 282 282 282 282 282 283 284 285 286 287 287 288 288 289 289 290 290 291 292 293 294 296 296 297 300 300 301 308 315
286 286 285 283 282 282 282 281 279 279 279 279 278 278 278 278 277 276 276 276 276 276 276 275 274 273 272 272 271 270 270 269 269 269 269 270 271 272 272 272 272 273 273 273 274 274 274 274 274 275 276 276 278 279 280 281 283 283 283 283 284 284 284 285 286 287 287 288 288 289 289 290 290 291 293 294 295 296 297 298 301 302 302 307 314
286 285 284 283 282 281 280 280 279 278 278 278 278 278 277 277 276 275 275 275 276 275 275 275 275 274 273 272 271 271 271 270 269 269 270 270 271 272 272 273 273 273 273 274 274 274 274 274 274 275 276 277 278 279 280 281 282 283 284 284 285 285 286 286 287 287 288 288 288 289 289 290 291 292 293 294 295 296 297 299 303 304 303 306 314
286 284 283 282 281 280 279 279 278 278 278 278 277 277 277 276 275 274 274 275 275 275 274 274 274 272 272 272 272 272 271 270 270 270 270 271 271 272 272 273 273 273 273 273 273 273 273 273 274 275 277 278 278 279 280 281 282 283 284 285 285 286 286 287 287 288 288 288 288 289 290 291 292 292 293 295 295 296 297 300 304 305 304 307 313
285 283 282 281 280 279 279 278 278 278 278 277 277 276 276 275 274 274 274 274 274 274 274 273 271 271 270 270 271 272 272 270 270 270 271 271 271 271 272 272 272 272 272 272 272 273 273 274 274 275 277 278 279 280 281 283 284 284 284 285 286 286 286 287 287 288 288 289 289 289 290 291 292 293 294 294 295 296 297 300 304 305 305 308 313
284 283 281 280 279 278 278 277 277 277 277 276 276 275 275 274 274 274 273 274 274 274 273 272 270 270 269 269 269 271 271 271 271 271 271 271 271 271 271 271 271 271 272 272 272 273 274 275 276 277 278 278 280 281 282 284 285 285 286 286 286 286 287 287 288 288 289 289 289 290 291 292 293 293 294 294 295 296 298 301 303 305 306 309 312
283 282 280 279 278 278 277 277 277 277 276 275 275 275 274 274 273 273 273 273 273 273 272 270 269 268 269 269 269 270 270 270 271 271 271 271 271 271 271 270 270 271 271 271 272 273 275 276 277 278 279 280 281 282 283 285 286 287 287 287 287 287 287 287 288 289 289 289 289 290 291 292 293 293 294 295 296 298 300 302 304 306 308 310 311
282 281 279 278 278 277 277 277 277 276 275 274 274 274 274 273 273 273 273 273 272 271 270 269 269 268 268 269 270 270 270 270 271 271 271 271 271 270 270 270 270 271 271 271 272 274 276 277 277 278 279 280 281 282 283 285 287 288 288 288 288 288 288 288 288 289 289 289 290 290 291 292 293 294 294 295 297 299 301 303 305 308 310 311 311
281 280 279 278 277 277 276 276 277 276 275 274 273 273 273 273 273 272 272 272 271 271 270 270 269 268 268 269 270 270 270 270 270 271 271 271 270 270 269 270 270 271 270 271 273 275 276 277 277 277 278 279 280 282 283 284 286 287 288 289 289 289 288 289 289 289 289 290 290 291 291 292 293 293 294 296 298 300 303 305 307 309 310 310 310
281 279 278 277 277 276 276 276 276 275 274 273 272 272 272 272 272 272 272 271 271 271 271 272 271 270 269 269 269 269 269 270 270 270 270 270 269 269 270 270 270 270 270 271 273 274 275 276 276 276 277 278 280 281 282 283 285 286 287 288 289 289 290 290 290 290 290 290 291 291 292 292 293 293 295 297 299 301 305 307 308 309 310 310 310
280 278 277 276 276 276 276 276 275 274 273 272 272 272 271 271 271 271 271 271 272 272 272 272 272 272 271 270 269 269 270 270 269 269 269 269 268 269 270 270 269 269 269 270 272 272 273 273 274 275 276 277 278 279 280 281 283 285 286 287 288 289 290 291 291 291 291 292 292 292 293 294 294 294 296 298 300 303 307 308 308 309 310 310 310
279 277 276 275 275 275 275 275 274 273 272 271 271 271 271 271 271 271 271 271 272 272 272 272 272 272 272 271 270 269 270 270 269 268 268 268 268 269 270 270 269 268 269 271 272 271 271 271 271 272 274 275 276 276 277 279 280 282 284 286 288 288 289 290 291 292 292 293 293 294 294 295 295 296 297 298 300 305 308 308 308 309 309 309 310
277 276 275 275 275 275 275 275 274 272 271 271 271 270 270 270 270 271 271 271 271 271 271 272 272 272 273 272 271 270 271 271 270 269 268 268 268 269 270 270 269 269 270 271 271 270 270 270 270 271 272 273 274 275 275 277 278 280 282 284 286 287 289 289 290 291 292 293 293 294 295 296 296 297 297 298 301 305 307 307 308 308 309 309 309
276 275 275 275 274 275 275 274 273 271 270 270 270 270 270 270 269 270 270 270 271 271 271 271 272 272 272 272 272 271 271 271 271 270 269 269 269 270 271 272 272 272 271 270 269 268 268 269 269 270 271 272 272 273 274 275 276 278 280 282 284 286 288 289 290 291 292 293 293 294 295 296 297 297 298 299 301 304 306 307 308 308 308 308 309
275 274 274 274 274 274 274 273 272 271 270 270 270 269 269 269 269 269 269 269 270 270 270 271 271 271 271 272 272 271 271 271 271 271 270 269 269 270 272 272 273 272 271 269 268 268 267 268 268 269 270 271 271 272 272 273 274 276 278 280 282 284 287 289 290 291 293 293 294 295 296 297 297 298 299 300 301 303 305 307 308 308 308 308 308
275 274 274 274 274 274 274 272 271 270 270 269 269 269 269 269 269 269 269 269 269 269 270 270 271 271 271 271 272 271 271 271 271 271 270 270 270 271 270 270 269 269 269 268 268 267 267 267 268 268 269 270 271 271 271 272 273 274 275 277 279 282 285 288 290 291 293 294 295 296 297 297 298 298 299 300 301 302 304 306 307 308 308 307 308
274 274 274 274 274 274 273 272 271 270 269 269 269 269 269 268 268 268 268 268 269 269 269 269 270 270 271 271 271 270 270 271 271 271 271 271 271 270 269 268 268 268 268 268 267 267 267 267 268 268 269 269 270 270 271 271 272 273 274 276 278 280 283 286 288 290 292 294 296 296 297 297 298 299 299 300 301 302 303 305 306 307 308 307 307
274 273 273 273 273 273 272 271 270 269 269 269 269 268 268 268 268 268 268 268 268 269 269 269 269 269 270 271 270 269 269 271 271 271 271 270 270 269 268 268 268 268 268 268 267 267 267 267 268 268 268 269 270 270 270 271 271 272 274 276 278 280 282 285 288 290 291 294 296 296 296 297 298 299 300 300 301 302 302 304 305 306 307 307 306
274 273 273 273 273 272 271 270 269 269 269 268 268 268 268 268 268 268 268 268 268 268 268 269 268 268 269 269 269 268 269 270 270 270 269 269 269 269 268 268 268 268 268 268 268 267 267 267 267 268 268 269 269 270 270 270 271 272 273 275 277 280 282 285 287 290 292 294 295 296 296 297 298 299 300 300 301 301 302 303 304 305 305 305 306
273 273 273 272 272 272 271 270 269 269 268 268 268 268 268 268 268 268 268 268 268 268 268 268 268 268 268 268 267 267 268 269 268 268 268 268 268 268 268 268 268 268 268 268 268 268 267 267 267 268 268 269 269 270 270 270 271 271 272 274 275 278 280 283 285 288 291 293 295 296 296 296 297 299 300 300 300 301 302 302 303 304 304 305 306
273 272 272 272 272 271 270 269 269 268 268 268 268 268 268 268 268 268 268 268 268 268 268 268 268 268 268 267 267 267 268 268 268 268 268 268 268 268 268 268 268 268 268 268 268 268 268 267 267 268 268 269 269 270 270 270 270 271 271 272 274 276 279 282 284 286 289 292 294 295 296 296 297 298 300 301 301 301 301 302 302 303 304 305 305
272 272 272 272 271 270 269 269 268 268 268 268 268 268 268 268 267 268 268 268 267 267 268 268 267 267 267 267 267 267 268 268 268 267 267 267 268 268 268 268 268 268 268 268 268 268 268 267 267 268 268 268 269 270 270 270 270 270 271 271 272 274 278 281 283 285 288 290 293 295 295 296 296 297 299 300 301 300 301 301 301 302 303 304 304
272 272 272 271 271 270 269 268 268 268 268 268 268 268 267 267 267 267 267 267 267 267 267 267 267 267 267 267 267 267 268 268 267 267 267 267 267 268 268 268 268 268 268 268 268 268 268 267 267 268 268 268 269 269 270 270 270 270 270 271 271 273 276 279 282 285 287 289 292 294 295 296 296 296 297 299 300 300 300 300 301 301 302 303 303
272 272 271 271 270 269 268 268 268 268 268 268 268 267 267 267 267 267 267 267 267 267 267 267 267 267 267 267 267 268 268 268 267 267 267 267 267 267 268 268 268 268 269 269 269 269 268 268 268 268 268 269 269 270 270 270 270 270 270 270 271 273 276 278 281 283 286 288 291 293 294 295 296 296 296 297 299 300 300 300 300 301 301 302 302
271 271 271 270 269 269 268 268 268 268 268 268 267 267 267 267 267 267 267 267 267 267 267 267 267 267 267 267 267 267 267 267 267 267 267 267 267 267 267 268 268 268 269 269 269 269 269 268 268 268 268 269 269 270 271 271 271 270 270 270 271 272 275 277 279 281 283 286 289 292 293 294 295 296 296 297 298 299 300 300 300 301 301 301 301
271 271 270 270 269 268 268 268 268 267 267 267 267 267 267 267 267 267 267 267 267 267 267 267 267 267 267 267 267 267 267 267 267 267 267 266 267 267 267 267 268 268 268 269 269 269 269 268 268 268 268 268 269 270 271 271 271 271 271 271 271 272 274 277 279 281 282 284 287 290 293 294 294 295 296 296 297 298 299 300 300 300 300 301 301
271 270 270 269 269 268 268 267 267 267 267 267 267 267 267 267 267 267 267 267 267 267 267 267 267 267 267 267 267 267 267 267 267 267 266 266 266 266 267 267 267 267 268 268 269 269 269 268 268 268 268 268 268 269 271 271 272 272 272 272 272 273 275 278 280 281 282 283 285 288 291 293 294 295 295 296 297 298 298 299 299 300 300 301 301
270 270 269 269 268 268 267 267 267 267 267 267 267 267 267 267 267 267 267 267 267 267 267 267 267 267 267 267 267 267 267 267 267 267 266 266 266 266 266 267 267 267 267 268 268 269 269 268 268 268 268 268 268 269 270 271 271 272 272 273 274 275 277 279 280 281 282 283 284 285 288 290 292 294 295 295 296 297 298 298 299 299 300 300 300
270 269 269 269 268 268 267 267 267 267 267 267 267 267 267 267 267 267 267 267 267 267 267 267 267 267 267 267 267 267 267 267 267 267 267 267 267 267 267 267 267 267 267 268 268 269 269 268 268 268 268 268 268 268 269 269 270 271 272 273 274 276 278 279 280 281 283 283 284 285 286 288 290 292 294 295 295 296 297 298 299 299 299 299 299
270 269 269 268 268 267 267 267 267 267 267 267 267 267 267 267 267 267 267 267 267 267 267 267 267 267 267 267 267 267 267 267 267 267 267 267 267 267 267 267 267 267 267 267 268 268 269 268 268 268 268 268 268 268 268 269 269 270 272 273 274 276 277 279 280 281 282 283 284 284 286 287 289 291 293 294 295 296 296 297 298 298 299 299 299
269 269 268 268 267 267 266 266 266 267 267 266 266 267 267 267 267 267 267 267 267 267 267 267 267 267 267 267 267 267 267 267 267 267 267 267 267 267 267 267 267 267 267 267 267 268 268 268 268 268 268 268 268 268 268 268 269 269 271 272 273 275 276 277 279 280 281 282 283 283 284 286 288 290 291 293 294 295 295 296 297 297 298 298 299
Wind_Speed
18 16 15 13 13 13 14 16 18 21 23 26 29 31 33 36 39 41 44 45 46 46 46 45 43 42 41 40 40 41 41 42 44 45 46 48 48 47 46 45 45 49 52 49 43 41 41 42 44 43 41 42 43 44 46 45 44 44 46 48 49 45 41 42 50 52 45 43 45 43 42 41 40 40 38 37 38 43 46 41 32 35 45 50 51
18 16 14 13 13 13 15 17 20 22 25 27 30 32 35 38 40 43 45 45 45 45 44 43 41 40 40 41 41 43 44 45 46 47 49 51 50 48 44 43 47 47 47 49 45 37 37 41 44 42 40 40 40 39 42 44 45 47 48 49 51 48 42 41 47 48 43 43 43 41 41 40 39 40 39 38 40 42 46 46 36 32 40 48 51
18 16 14 13 13 14 16 18 21 23 26 29 31 34 37 39 41 43 45 45 44 43 42 41 40 40 41 42 43 44 46 47 48 49 51 52 50 49 45 43 47 47 42 43 42 38 37 39 41 40 37 40 41 42 45 47 49 53 53 51 52 51 44 41 44 46 44 42 41 40 41 40 38 38 38 38 39 39 42 46 38 30 36 45 50
18 16 14 13 13 15 17 19 22 25 28 30 33 35 38 40 42 43 43 43 42 40 40 40 40 41 41 43 45 46 47 48 49 50 51 51 50 49 47 45 44 42 40 40 40 39 38 38 38 38 38 39 39 40 43 47 48 48 49 49 51 51 45 40 41 43 42 39 38 37 38 39 38 35 35 35 37 38 40 46 41 31 37 48 52
17 15 14 13 14 15 18 20 23 26 29 32 34 36 39 40 42 42 41 41 39 39 39 39 40 41 43 45 46 47 48 49 50 51 51 50 49 48 47 45 41 38 39 40 41 40 38 37 37 37 37 38 38 37 39 44 47 45 42 44 46 45 41 38 40 41 38 35 37 38 38 40 38 35 34 33 35 37 39 44 42 33 38 49 52
17 15 14 14 14 16 18 21 24 27 30 33 35 37 39 40 40 40 39 38 38 38 39 40 41 43 44 45 46 47 48 48 49 50 49 48 47 45 42 40 37 36 37 37 36 35 35 37 37 37 38 39 38 37 37 41 46 44 40 40 42 41 37 36 38 38 34 33 36 38 39 40 38 36 35 32 33 36 37 41 41 34 39 47 45
17 15 14 14 15 16 19 21 24 28 30 33 35 37 38 39 38 38 37 37 38 38 40 41 41 42 43 44 45 46 47 47 48 47 46 44 42 40 37 35 34 34 34 33 33 33 34 35 35 36 37 38 38 38 38 41 43 42 42 42 42 42 41 38 37 35 33 32 34 36 38 39 36 35 35 32 31 34 34 37 38 36 43 49 39
17 15 14 15 15 17 19 22 25 28 31 33 35 36 37 37 36 35 36 37 38 38 40 41 41 41 42 43 44 45 46 47 47 45 44 41 38 35 34 33 34 35 37 38 37 37 37 36 36 36 37 37 38 38 39 40 42 42 43 41 38 38 39 38 37 35 33 32 32 34 36 36 32 30 30 30 33 36 34 34 37 36 43 51 41
16 15 14 14 15 17 20 23 26 28 31 32 34 35 35 35 34 34 35 36 37 38 38 39 39 40 41 42 42 44 45 46 46 44 40 37 35 35 35 36 37 39 41 42 42 41 40 39 39 39 38 38 38 39 39 40 41 42 42 39 37 36 35 34 34 33 33 33 33 34 36 36 32 26 25 28 34 39 38 35 37 37 43 54 46
16 15 15 14 15 18 20 23 26 29 31 32 33 34 34 33 33 33 34 34 35 35 36 36 37 39 40 41 43 44 45 46 44 39 33 33 34 36 37 37 37 38 39 41 42 42 42 43 42 41 40 40 39 40 40 40 41 42 42 42 41 41 40 37 35 31 31 34 35 35 37 38 34 28 26 27 29 34 36 34 37 38 44 58 52
16 15 14 14 16 18 20 24 26 28 30 32 32 33 32 32 32 32 33 33 32 33 34 34 36 38 40 41 42 43 43 43 42 37 32 32 33 35 37 36 36 37 37 38 38 39 41 41 42 42 41 39 37 37 37 38 39 40 41 41 42 43 45 45 42 34 31 35 37 37 39 39 36 32 29 29 27 27 32 34 37 39 45 62 56
16 15 14 14 16 18 21 24 26 28 29 31 31 31 31 31 31 32 31 31 31 31 32 34 35 37 39 40 40 41 42 41 39 35 32 32 33 35 36 36 36 36 37 37 38 39 41 41 41 42 41 39 37 35 35 37 40 40 40 40 41 42 44 47 47 40 34 36 38 40 42 40 38 37 33 31 28 25 28 34 37 40 47 66 63
15 14 13 14 17 19 22 24 26 27 29 30 30 30 30 30 30 30 30 30 30 31 32 34 35 36 37 38 39 40 41 40 36 33 33 34 33 34 35 36 37 36 36 37 38 39 41 41 42 42 41 41 41 40 40 41 44 44 41 37 38 39 41 45 46 43 39 39 39 43 45 40 38 40 37 35 32 26 25 30 37 41 46 66 69
14 13 13 15 17 20 23 24 25 27 28 28 29 29 30 30 29 29 29 29 30 31 32 33 34 34 35 37 39 40 39 37 34 32 33 34 33 34 35 35 36 35 34 35 36 38 39 41 42 43 42 43 44 44 44 43 45 45 41 36 34 35 37 41 45 45 44 44 43 46 47 43 41 41 38 37 37 33 28 28 34 40 44 64 70
13 12 13 16 18 21 23 23 24 26 27 27 28 28 29 28 28 28 28 28 30 31 32 33 33 34 35 36 38 40 38 36 33 30 32 34 33 33 33 33 32 33 33 32 33 35 37 38 40 41 42 43 43 43 43 41 42 44 42 38 36 34 35 39 43 46 47 48 48 49 49 46 43 42 39 39 41 40 37 34 35 39 42 61 65
12 12 14 16 19 21 22 22 24 25 26 26 27 27 28 27 27 28 28 28 29 30 32 33 33 34 35 36 39 40 39 36 33 31 31 32 32 31 31 32 33 33 33 32 32 33 33 34 36 38 40 42 40 39 39 37 39 42 42 40 38 35 33 34 38 43 46 47 48 48 48 46 43 41 41 42 43 43 43 42 42 44 39 54 61
12 12 14 17 19 21 21 22 23 24 24 25 26 26 27 27 26 27 28 28 29 30 31 32 32 34 36 37 39 41 41 39 36 33 30 29 30 31 33 34 34 33 33 32 32 33 32 33 34 36 39 41 40 39 36 35 37 40 41 40 38 35 32 29 31 37 41 43 45 45 45 44 42 43 43 43 44 42 43 46 47 46 36 50 63
12 12 15 17 19 19 20 20 22 23 23 24 26 26 26 25 25 26 27 28 29 30 31 32 32 33 35 37 38 40 42 40 37 36 32 29 32 33 34 35 35 34 34 33 32 33 33 34 34 35 38 39 39 39 34 33 35 38 39 38 36 35 34 31 30 33 37 38 39 41 42 42 42 44 44 45 44 40 42 46 47 47 38 48 65
12 13 15 17 18 17 18 19 21 21 22 23 25 25 25 24 25 25 26 28 29 29 31 33 34 34 36 37 38 38 40 40 38 35 33 32 34 34 34 35 35 35 35 34 34 35 35 36 35 34 35 36 36 36 33 32 35 36 36 36 37 38 37 34 32 33 34 34 36 39 41 41 41 45 45 46 45 41 43 46 46 49 44 46 67
11 13 15 16 16 16 16 18 20 20 21 22 23 24 24 24 24 24 25 27 28 29 31 33 35 37 37 38 38 38 39 40 37 33 32 34 35 34 33 34 35 36 36 36 37 37 37 37 36 35 36 36 34 33 32 32 34 36 36 37 39 41 38 34 33 33 33 34 36 39 41 40 41 45 46 47 47 44 44 45 46 51 49 44 67
12 13 15 15 14 15 15 17 18 19 21 22 22 22 23 23 23 24 25 27 28 29 31 33 35 36 36 36 38 37 37 38 37 33 33 34 34 33 34 36 37 38 39 39 38 39 39 38 39 40 40 39 36 34 32 30 31 34 37 39 40 39 36 34 35 35 35 36 37 39 42 42 43 46 48 48 49 46 44 45 48 52 51 45 66
12 13 13 13 13 13 14 16 17 18 20 22 21 20 21 22 23 23 24 27 29 29 31 32 33 35 36 35 37 37 38 39 38 34 34 34 35 35 36 37 37 37 39 39 39 40 40 39 40 42 43 41 39 37 34 31 30 32 36 39 38 36 34 34 35 36 35 35 36 39 43 44 45 47 49 50 49 46 43 45 49 52 49 48 70
12 12 12 12 11 12 13 14 16 17 20 20 19 19 20 20 22 23 24 27 29 30 30 31 33 36 38 38 39 39 41 43 41 36 36 36 36 36 36 36 34 34 37 39 39 40 40 40 41 42 42 40 39 37 34 32 31 31 33 35 36 36 35 36 36 37 37 35 35 39 44 46 46 48 50 50 48 45 42 43 50 54 48 49 72
11 11 11 10 9 10 12 13 15 17 19 19 17 17 19 20 21 22 23 26 28 29 30 32 33 36 38 40 41 42 44 46 45 42 40 40 38 37 36 35 34 34 36 37 38 39 39 40 40 39 37 37 37 36 35 34 32 31 31 32 34 34 34 36 37 37 37 35 35 39 44 46 46 49 51 49 46 44 41 42 49 55 50 51 71
10 10 10 8 8 9 11 12 14 16 18 18 16 16 18 19 21 22 22 24 27 29 30 32 32 34 37 39 42 43 45 47 47 46 46 44 41 38 36 35 34 34 33 34 36 37 38 39 38 37 36 36 36 35 35 34 30 29 29 30 31 33 34 35 36 36 36 37 37 40 44 47 47 48 49 47 46 43 40 40 47 54 52 55 69
10 10 8 6 6 8 11 12 13 16 16 15 15 16 17 18 20 22 22 24 25 28 30 31 31 33 35 37 40 43 46 47 47 48 49 48 45 41 38 36 35 33 33 34 37 37 37 36 34 31 32 33 33 33 34 33 28 26 26 26 29 33 34 35 35 35 36 38 39 41 43 44 44 45 44 45 45 41 38 40 46 52 54 56 65
10 9 7 6 6 7 9 10 12 15 15 13 13 14 16 17 20 22 23 24 25 27 28 29 29 31 34 36 39 42 44 45 46 48 48 47 45 43 40 39 37 36 36 38 38 36 34 31 27 23 24 27 29 30 32 31 26 23 22 23 26 31 33 33 34 35 37 38 39 39 38 37 38 40 41 41 41 38 37 42 48 52 55 58 62
10 9 7 6 6 7 8 9 11 13 12 12 12 13 14 15 17 20 21 23 24 25 26 26 26 28 32 35 39 42 42 42 44 45 44 44 43 42 39 37 36 38 38 36 33 29 24 19 15 14 14 17 20 23 25 25 23 21 21 21 23 26 29 29 30 33 36 37 37 35 33 33 36 38 39 38 37 35 37 45 51 53 55 58 60
10 8 7 6 6 7 7 9 10 10 9 9 12 14 15 15 16 18 19 19 20 20 22 23 23 25 28 31 35 39 41 40 40 39 39 39 40 39 34 31 32 36 34 29 26 23 19 14 13 12 10 9 11 14 16 16 17 16 17 19 20 21 23 25 28 32 34 34 34 34 33 35 38 39 38 36 34 34 39 49 53 53 56 59 60
9 8 7 6 6 7 7 9 10 9 7 6 8 10 13 16 17 17 17 16 15 16 18 19 20 21 24 26 29 31 33 35 36 36 36 37 38 35 28 23 28 32 30 24 22 21 19 18 17 17 15 13 11 11 13 13 12 12 12 14 18 20 21 23 26 28 30 30 32 33 34 36 38 38 37 34 32 35 45 53 54 55 57 59 60
9 8 7 6 6 6 7 8 9 7 6 6 6 7 8 10 12 15 16 16 15 14 15 16 17 18 20 23 26 28 28 29 32 34 35 36 37 34 25 20 24 30 29 26 25 25 26 25 24 23 22 20 18 16 16 16 15 13 11 11 13 15 19 22 22 23 25 27 30 32 33 34 35 35 34 32 31 37 49 53 54 57 59 59 61
9 8 7 6 5 5 6 8 7 6 5 6 7 8 8 8 8 10 13 16 17 17 16 16 17 18 18 20 25 28 29 29 31 32 33 34 35 33 27 22 24 28 28 26 26 30 33 33 31 29 27 25 23 22 21 20 18 16 14 13 12 12 14 18 21 23 24 26 27 30 31 31 32 33 33 30 30 39 50 51 52 57 59 58 61
9 8 7 5 4 4 5 6 6 5 5 6 7 9 10 11 11 11 11 12 13 15 16 16 17 18 19 21 23 25 27 29 31 32 33 33 33 32 29 25 25 28 30 30 32 35 37 38 37 35 32 30 28 26 25 23 21 18 16 15 15 14 13 15 18 21 24 25 26 27 28 28 30 31 31 30 30 37 48 51 51 54 57 57 58
9 8 7 5 4 4 5 5 4 3 5 6 8 10 11 13 15 16 16 15 13 12 14 16 17 18 20 21 23 25 27 28 31 32 33 34 34 33 30 27 24 26 31 36 39 40 41 41 41 39 36 34 32 30 28 27 24 22 19 16 15 14 15 16 16 18 20 21 22 24 24 24 27 29 29 31 32 35 45 52 53 51 52 55 57
10 8 7 5 4 4 4 4 3 3 5 6 8 10 11 13 14 16 18 19 19 18 18 19 20 22 22 23 24 27 28 29 30 32 33 35 35 34 34 34 33 33 36 39 41 43 43 42 43 42 40 38 36 34 33 31 28 26 23 20 17 14 13 14 15 16 17 17 18 19 19 21 25 28 29 33 35 35 41 50 54 51 49 53 58
10 8 7 5 3 3 3 2 2 3 5 6 8 9 11 12 14 15 16 17 19 20 20 21 21 22 22 23 25 27 28 29 30 32 34 35 35 36 39 41 41 41 41 42 43 44 44 42 42 43 43 42 39 38 37 36 33 30 27 25 23 18 14 12 13 14 15 15 15 15 15 19 24 28 31 35 37 39 40 46 52 54 50 52 57
10 9 7 5 3 3 2 1 2 3 4 6 8 9 10 12 13 14 15 16 17 19 20 22 23 23 24 25 27 29 29 28 29 31 34 35 37 39 42 43 42 42 43 43 44 45 45 44 43 43 44 44 43 41 41 40 38 35 32 29 25 22 17 14 12 13 14 14 12 12 14 19 24 29 34 37 38 40 41 42 48 52 52 52 56
10 9 7 5 4 3 2 1 2 3 4 6 7 8 10 11 12 13 14 15 16 18 19 21 24 26 27 28 30 30 29 29 30 33 36 39 41 42 43 43 43 42 43 43 44 45 46 46 45 44 44 44 45 44 43 42 42 40 37 33 28 24 19 15 12 12 12 12 10 10 13 20 26 31 36 39 39 41 42 42 43 47 50 52 54
11 9 7 5 4 3 1 1 2 3 4 5 7 8 9 10 11 12 13 14 15 17 19 20 23 25 26 28 30 30 30 32 35 38 40 42 43 43 44 44 44 43 43 44 44 45 46 46 46 45 44 45 45 45 44 44 44 43 41 37 33 27 21 16 13 11 11 10 9 8 12 20 28 33 36 39 40 41 42 43 43 44 47 51 54
11 10 8 6 4 3 2 2 2 2 3 5 6 7 8 9 10 11 12 14 15 16 17 19 21 22 24 26 27 28 30 32 35 37 39 41 42 42 43 44 44 44 44 44 45 46 47 47 47 46 46 46 47 47 46 46 47 46 44 41 38 32 25 19 16 13 11 9 9 8 10 18 27 33 37 39 39 40 42 43 43 44 47 52 56
11 10 8 6 5 4 3 2 2 2 3 4 6 7 8 9 11 11 12 13 14 15 16 18 19 20 21 22 22 23 26 30 32 34 36 38 40 41 42 43 44 44 45 45 46 47 47 48 48 48 47 48 49 49 49 49 49 49 48 46 43 37 30 22 17 15 13 11 9 10 11 15 22 30 37 39 39 39 41 43 43 45 47 50 54
12 10 8 7 5 4 3 2 1 1 3 4 5 7 8 9 10 11 11 12 13 13 14 16 16 17 18 19 19 20 23 26 29 32 34 36 37 39 40 41 43 43 44 45 46 47 48 48 49 49 48 49 50 51 51 51 51 50 50 49 47 42 35 26 19 15 14 13 12 12 13 15 18 26 34 39 40 39 40 41 43 44 46 46 48
12 10 8 7 6 5 4 3 2 1 2 4 5 6 7 8 9 10 11 11 12 13 14 15 15 15 16 17 17 19 22 24 27 30 32 34 35 36 38 39 40 41 43 44 45 47 48 48 49 49 49 50 51 51 51 50 50 50 50 49 48 44 38 31 23 17 13 14 14 15 15 16 18 22 28 35 39 39 39 41 43 44 45 45 45
12 10 9 8 6 5 4 3 2 1 2 3 4 5 6 7 8 9 10 11 11 12 13 14 14 15 16 16 17 19 22 24 26 28 30 31 33 34 36 37 38 39 41 42 44 46 48 49 50 50 51 52 52 52 52 51 50 50 50 49 48 45 40 34 28 22 16 13 14 16 18 18 19 20 23 30 37 39 39 40 42 43 44 44 44
12 10 9 8 7 6 4 3 2 2 2 2 3 4 5 6 7 8 9 10 11 12 13 14 14 15 16 17 18 20 22 23 24 26 27 29 31 32 33 35 37 38 40 41 43 45 47 49 50 51 53 54 54 54 53 53 52 51 50 48 48 45 40 33 28 24 20 15 12 14 18 21 20 20 22 27 33 38 41 41 42 43 43 43 44
12 11 10 9 8 6 5 3 2 2 1 2 3 3 4 5 6 7 8 9 11 12 12 13 14 15 16 17 18 19 21 22 23 24 25 27 28 30 31 33 34 36 38 39 41 43 46 48 50 51 52 54 55 55 54 54 54 53 51 49 46 44 39 32 27 23 20 16 13 12 15 21 23 22 22 24 30 35 39 40 41 42 43 44 45
12 11 10 9 8 7 5 4 3 2 2 2 2 2 3 4 5 7 8 9 10 11 12 12 13 14 16 17 18 19 20 21 22 23 24 25 27 28 29 31 32 34 36 38 39 41 44 46 48 49 51 53 56 56 55 54 54 54 53 50 46 43 39 34 28 23 19 16 13 11 12 17 22 24 22 23 27 32 36 38 39 41 43 45 45
13 12 11 10 8 7 6 5 4 3 2 2 1 1 2 4 5 6 8 9 9 10 11 11 12 14 15 17 18 19 20 21 21 22 22 24 25 26 28 29 30 32 34 36 37 39 41 44 46 47 49 51 54 57 57 55 54 54 54 51 47 42 39 36 32 27 21 16 12 9 8 12 19 23 23 22 24 30 34 37 38 40 42 44 45
13 12 11 10 9 7 6 5 5 4 3 2 2 1 2 3 4 6 7 8 9 10 10 11 12 14 15 16 17 19 19 20 21 22 23 23 25 26 27 28 28 30 31 34 36 37 39 41 44 46 47 48 50 54 57 57 55 53 52 51 48 44 39 37 35 31 25 20 15 10 5 5 13 20 22 22 23 27 32 35 37 39 41 43 43
13 12 11 10 9 8 7 6 6 5 4 3 2 2 2 2 4 5 6 7 8 9 10 11 12 14 15 16 17 18 20 21 22 23 24 24 25 26 27 28 29 29 30 31 33 35 36 39 41 44 46 47 47 50 54 57 56 54 51 49 48 46 43 39 37 34 31 26 21 15 10 3 6 14 19 21 23 25 28 32 35 38 40 42 43
13 12 11 10 9 9 8 7 6 6 5 4 3 3 2 2 3 4 5 6 7 8 9 10 12 14 15 16 17 18 20 21 22 23 24 25 25 26 27 28 29 30 30 30 31 32 34 36 39 41 44 46 46 47 50 54 56 54 51 49 48 47 46 43 39 36 34 31 27 22 18 12 5 7 12 17 21 24 26 28 31 34 37 40 43
Wind_Direction
233 239 245 255 266 277 290 299 305 310 314 318 321 322 322 321 322 322 323 324 323 322 320 319 317 316 315 313 311 310 309 308 308 306 303 300 296 293 291 288 284 281 285 285 277 276 280 275 270 269 267 267 268 266 264 262 262 265 265 264 264 264 266 269 267 265 265 265 265 268 271 274 275 276 278 273 258 248 249 252 258 257 243 235 234
231 238 246 255 268 282 293 301 307 313 317 320 321 322 322 322 323 324 324 324 323 321 320 319 318 317 316 315 313 312 311 310 309 307 304 302 298 294 290 284 284 283 283 287 282 272 275 276 270 268 267 265 267 269 267 262 260 262 262 262 263 263 265 269 266 263 264 267 267 271 274 276 276 275 278 278 266 254 251 250 256 264 252 240 235
229 237 246 257 272 286 295 303 310 314 318 321 322 322 323 324 325 326 325 325 324 322 321 320 319 318 317 315 313 312 312 311 309 306 303 301 297 295 291 284 286 286 280 280 280 274 273 274 270 266 265 265 267 269 271 271 268 266 264 263 263 262 263 268 267 262 262 266 269 272 275 275 275 275 277 278 271 263 255 248 252 267 261 249 241
229 237 247 261 276 288 298 305 311 316 319 322 323 323 324 326 327 327 326 325 324 324 322 320 319 318 316 314 313 313 312 311 309 306 303 300 297 296 294 289 287 285 278 274 276 277 274 270 268 266 265 267 269 269 273 278 277 272 267 265 263 262 263 266 266 262 261 265 268 270 273 273 273 274 274 277 275 266 255 249 252 263 259 250 242
230 239 249 264 278 290 300 307 313 317 320 322 323 323 325 328 329 329 328 326 325 324 322 320 318 317 316 315 315 314 313 311 308 306 302 300 299 296 295 292 286 281 278 275 276 277 274 270 270 268 266 267 268 269 273 277 280 277 270 267 264 263 265 267 264 260 257 262 267 268 271 271 272 274 272 276 277 265 256 252 252 259 255 242 235
230 240 251 265 280 291 301 309 314 318 321 322 323 325 328 330 330 329 328 326 324 323 322 320 318 317 317 317 316 314 312 310 307 305 303 302 301 299 297 294 289 286 283 281 279 278 274 271 272 269 267 268 267 269 271 274 279 279 271 267 263 259 264 269 266 259 252 257 263 265 268 269 272 273 269 273 276 265 259 254 251 257 252 233 221
231 242 254 268 282 294 304 311 315 318 320 321 323 327 330 330 330 329 327 325 325 323 321 320 319 319 318 317 316 314 312 311 308 307 307 306 305 304 301 296 291 290 289 287 286 285 280 276 275 271 269 267 265 269 272 273 276 276 270 265 261 259 264 269 269 260 251 254 258 260 266 270 274 276 270 270 273 266 261 257 257 259 243 225 205
232 243 256 271 285 297 306 312 315 318 319 321 325 329 331 330 330 328 326 325 325 323 321 321 321 320 319 318 318 317 315 314 313 314 316 314 310 306 302 296 293 293 293 293 293 292 290 287 283 279 274 272 271 274 276 275 276 276 272 266 263 264 267 271 271 262 253 255 255 257 264 267 271 278 275 271 266 261 256 251 258 256 226 209 193
233 245 259 274 289 301 308 313 316 318 319 323 328 330 330 330 329 328 327 326 325 323 322 323 322 322 321 321 321 321 320 320 320 322 321 314 307 302 297 294 294 294 293 293 294 294 292 292 289 285 282 282 279 276 274 273 273 275 274 269 262 258 259 266 272 264 254 256 256 256 260 262 266 273 274 270 262 260 256 248 256 252 212 195 190
234 248 263 278 293 303 309 313 315 317 321 326 329 329 329 329 328 327 326 325 324 323 324 324 324 324 325 326 326 326 326 325 325 325 315 303 297 295 292 290 289 290 288 287 289 289 290 292 291 289 288 284 277 271 269 268 267 268 271 270 265 259 255 258 266 265 258 258 257 256 258 261 265 266 266 267 263 265 264 253 257 252 206 185 188
237 251 267 283 296 305 310 313 315 318 324 328 329 329 329 328 327 326 326 326 324 324 325 325 327 328 329 330 331 330 329 329 328 324 311 299 295 293 292 290 288 286 285 282 281 281 284 287 288 289 289 284 276 271 268 269 269 268 267 267 266 263 258 256 261 264 262 261 259 257 258 261 265 264 264 266 266 271 268 256 258 253 206 180 183
241 255 271 288 299 307 311 312 316 321 326 329 328 328 328 327 326 325 325 325 325 325 327 328 331 333 333 334 334 333 333 333 330 323 311 303 299 295 293 291 289 287 285 283 282 281 282 283 283 284 285 281 275 272 270 272 275 275 270 265 263 263 260 256 257 258 258 260 260 258 258 262 265 265 266 269 270 274 272 263 262 251 206 181 182
244 259 276 293 302 308 310 312 317 324 327 328 328 328 327 326 325 325 326 326 326 328 330 332 334 336 336 337 337 337 338 337 332 322 311 304 301 298 296 294 292 290 287 285 283 282 282 283 284 284 284 282 279 276 275 275 278 279 275 265 259 261 260 254 252 252 252 255 258 258 258 261 265 265 267 272 272 274 274 267 268 256 211 182 182
247 264 283 297 303 307 309 313 320 325 327 328 327 327 326 325 325 325 326 327 327 330 332 333 336 338 339 340 340 341 343 342 335 324 311 306 305 302 299 297 294 292 290 287 284 284 285 285 286 287 287 288 286 282 281 280 279 277 275 266 259 262 261 254 249 248 248 250 253 255 255 258 264 266 269 274 272 270 269 261 268 264 219 186 182
250 270 287 297 302 305 310 316 323 326 326 327 327 325 325 325 325 326 327 328 329 331 332 334 338 341 343 344 343 344 348 347 341 328 314 310 309 305 302 301 300 298 296 290 287 288 288 285 284 284 286 290 290 284 279 278 277 275 272 266 261 262 261 255 249 246 246 249 250 252 254 257 263 266 269 274 271 269 266 256 261 265 224 188 179
253 273 288 296 301 305 311 319 324 326 326 326 326 325 324 325 326 325 326 328 331 332 333 335 340 344 346 348 346 346 350 352 347 335 320 313 312 309 309 309 307 303 299 294 292 290 287 283 280 280 284 290 294 287 275 270 272 273 271 266 262 262 261 255 249 246 247 250 251 253 256 259 264 267 267 271 270 268 269 262 260 265 232 186 174
255 274 288 295 301 306 313 321 324 324 325 325 325 323 323 326 326 325 326 329 332 333 333 336 344 347 349 351 349 347 350 352 349 342 332 323 318 315 313 310 306 301 298 296 295 292 289 286 283 283 284 288 295 293 279 268 267 268 269 267 263 263 263 258 253 248 247 251 253 255 259 259 263 266 264 268 269 267 274 270 261 265 241 185 171
256 275 287 295 301 308 315 321 323 323 325 325 323 322 324 326 326 325 327 330 333 334 334 338 346 351 351 352 351 349 347 348 349 346 339 328 320 316 312 308 305 303 301 298 296 293 290 288 286 285 285 286 291 293 283 269 267 266 266 265 263 263 262 259 257 250 247 251 252 254 259 259 261 263 262 264 266 265 273 270 258 263 250 188 170
258 276 288 295 302 310 318 321 321 323 326 325 321 321 324 325 326 327 329 331 333 335 337 340 346 352 353 353 353 350 346 345 347 345 335 325 320 317 313 310 307 304 303 300 297 295 292 291 289 286 285 284 286 289 281 269 267 267 264 261 260 260 259 257 257 253 249 251 252 253 258 259 261 264 262 263 265 263 267 266 256 261 253 194 169
263 277 287 296 303 311 319 321 321 323 325 323 319 320 323 325 327 329 331 332 334 337 341 344 348 352 354 353 353 352 347 344 343 337 328 325 325 321 316 313 309 305 304 301 298 296 293 292 290 286 284 284 284 286 281 270 266 266 264 261 257 257 257 256 256 255 254 255 254 255 259 261 263 265 263 263 265 263 263 261 251 253 251 202 171
265 277 288 297 304 313 319 320 322 324 322 319 318 321 323 325 329 332 334 335 337 341 345 348 350 350 350 350 350 350 349 346 342 335 329 328 327 323 318 315 310 306 303 300 297 295 293 292 290 287 286 285 283 283 283 275 267 262 260 261 259 257 258 258 257 257 257 258 258 258 261 263 263 265 263 262 263 261 261 258 246 244 245 211 176
265 277 290 297 304 315 320 320 322 323 319 316 318 321 324 327 330 334 337 338 339 345 350 350 349 348 348 350 351 352 353 352 345 337 333 331 328 324 319 314 309 306 303 300 297 295 292 291 289 286 285 285 283 283 282 280 272 262 257 258 260 259 258 256 257 258 258 258 259 259 261 263 263 264 262 259 261 261 260 256 242 236 239 215 185
267 279 289 296 305 316 319 318 320 319 315 314 317 323 326 328 332 338 341 340 342 348 351 351 351 349 349 352 354 355 357 356 351 343 336 332 329 326 321 316 312 309 304 300 297 294 292 290 288 285 283 283 284 284 283 281 276 269 261 256 256 257 256 253 253 255 255 256 257 257 260 261 261 262 260 258 260 262 259 253 237 229 234 219 193
268 280 285 293 306 314 315 315 316 315 312 312 319 327 329 330 336 341 343 344 346 349 351 353 353 350 349 351 354 357 358 356 354 351 345 337 333 330 326 321 317 312 306 302 299 296 292 290 290 288 284 282 283 284 283 280 275 269 264 258 253 252 252 250 250 251 252 252 252 253 257 259 259 260 259 258 262 264 259 248 232 225 230 219 197
267 275 279 289 303 309 309 310 313 312 310 313 322 330 332 335 340 343 346 349 349 349 352 355 352 349 350 351 354 358 359 355 353 354 351 344 338 335 331 326 322 318 313 308 304 300 295 292 290 287 282 279 279 278 279 278 272 263 260 259 254 248 247 247 247 248 248 248 247 250 255 257 258 260 260 262 266 266 259 244 228 223 228 217 197
264 266 270 279 290 300 303 307 312 310 308 316 328 333 335 340 342 344 349 352 352 352 354 354 350 348 350 352 354 358 358 354 353 355 352 345 340 338 335 332 330 328 323 318 315 311 307 302 296 286 277 274 274 275 277 278 274 264 258 257 252 245 244 245 244 244 246 245 247 250 254 259 261 262 264 267 267 262 253 239 226 223 224 212 194
258 256 258 265 274 287 296 303 308 308 310 320 331 336 339 342 344 347 351 353 354 356 355 351 347 347 349 352 356 358 356 353 354 354 349 344 341 340 338 336 337 338 335 329 325 322 319 314 307 295 284 278 277 277 276 276 277 270 261 255 248 243 242 243 244 246 248 247 249 251 255 260 263 263 265 265 262 255 243 230 223 219 215 202 188
250 249 249 255 270 282 291 300 305 307 314 325 332 339 344 345 348 352 355 357 357 355 351 348 347 348 350 354 358 357 353 353 354 351 346 344 343 342 341 339 341 342 340 333 328 327 327 327 328 325 312 298 293 291 288 286 286 279 264 254 246 243 244 246 246 247 248 249 250 252 256 260 260 262 264 260 254 249 236 222 217 213 204 193 184
242 243 243 250 267 281 291 303 306 307 320 334 338 342 345 348 355 359 360 2 0 354 348 347 349 350 352 357 0 355 349 349 350 347 344 345 346 345 343 343 345 345 342 338 334 334 340 350 359 1 349 322 304 301 300 301 300 291 274 259 249 245 245 246 246 246 246 248 251 254 258 260 260 262 262 255 249 242 227 215 212 205 195 187 183
235 234 237 249 267 281 294 305 306 310 331 352 353 350 348 348 352 358 2 4 0 354 350 348 352 354 354 360 2 355 347 346 347 346 348 349 348 346 343 346 351 350 348 351 352 353 358 4 5 8 7 358 341 325 318 317 317 312 294 274 262 254 250 246 244 245 247 249 252 255 256 258 261 262 257 250 245 233 217 209 205 197 189 185 182
229 226 231 247 264 282 298 306 308 317 341 2 6 6 3 356 351 352 357 357 356 358 356 351 353 357 359 3 3 357 354 354 352 351 353 353 352 351 350 353 1 0 1 7 12 13 16 15 11 10 9 5 0 352 344 338 331 322 310 291 276 268 263 260 256 254 252 251 252 255 256 257 260 258 251 246 239 220 206 201 197 192 187 184 181
221 218 224 239 256 280 298 305 310 325 351 5 4 3 6 12 9 1 356 352 351 356 1 359 357 359 4 9 7 1 360 2 0 359 360 359 358 360 1 6 14 13 11 15 20 22 22 20 17 15 12 7 4 359 354 350 341 329 317 300 286 275 269 269 268 267 264 261 259 260 262 261 258 252 244 242 232 210 197 192 191 187 185 184 181
211 212 219 231 250 274 293 303 312 336 3 5 2 0 360 3 9 9 8 4 357 355 357 359 1 2 5 12 14 7 4 6 7 7 6 5 5 7 9 15 24 25 23 23 24 24 23 21 18 17 15 12 8 4 359 355 349 341 331 313 295 282 269 264 265 265 266 266 266 267 268 263 255 247 240 236 226 205 191 187 187 184 182 182 180
202 206 212 221 243 270 291 302 313 354 16 6 1 2 1 1 2 2 4 7 8 6 5 5 8 12 12 14 17 14 8 8 12 12 11 11 11 11 11 12 19 26 29 30 27 23 21 19 17 17 16 14 11 8 4 1 355 349 340 327 310 291 274 266 265 262 262 266 268 272 271 258 246 240 234 228 221 204 190 186 186 183 180 179 178
197 199 203 211 233 266 287 300 327 14 20 9 4 3 1 2 2 360 359 1 1 5 10 12 14 17 17 17 20 18 12 11 15 16 16 16 14 13 14 16 19 23 28 30 28 23 18 15 13 14 14 14 11 9 7 4 1 356 349 340 331 314 290 277 273 266 262 265 270 274 268 249 236 232 227 220 216 205 192 187 186 183 180 179 179
193 192 197 204 221 260 281 296 2 25 18 9 7 5 1 1 2 0 360 0 358 360 6 11 15 20 18 17 22 22 16 14 18 19 20 20 19 18 21 23 23 24 26 26 26 23 18 15 12 12 12 11 11 9 8 5 2 0 357 352 344 334 317 300 289 280 274 270 271 276 265 242 230 226 220 214 212 207 198 190 186 184 182 181 180
187 189 194 198 213 246 266 296 30 29 20 11 6 4 2 3 2 0 359 359 359 2 4 6 12 17 18 19 24 25 18 16 20 23 23 24 24 26 28 26 24 23 25 25 24 21 18 15 14 12 10 10 9 8 7 6 4 2 360 357 352 346 337 322 305 297 291 280 273 275 264 241 227 221 216 211 208 206 202 195 188 184 182 182 181
184 187 188 190 206 231 233 120 54 29 16 9 4 3 3 3 1 1 1 360 1 5 6 7 12 15 16 19 25 24 16 14 19 23 25 26 26 27 28 27 25 25 26 25 24 21 18 15 14 12 9 8 9 8 7 6 6 5 2 0 357 353 344 328 307 295 290 279 269 269 261 242 226 219 215 210 206 204 202 198 191 185 182 182 181
183 182 182 187 200 208 189 104 69 33 10 5 3 1 4 4 3 3 4 4 5 8 9 12 16 17 16 20 25 22 15 16 20 22 24 26 27 27 27 26 25 26 26 26 25 23 20 16 14 13 10 8 8 8 7 7 7 7 6 4 2 357 350 336 317 301 288 273 261 255 249 237 226 219 215 210 205 203 200 198 194 188 183 182 182
183 180 178 184 190 184 157 108 74 29 4 5 5 2 3 6 7 9 9 8 10 12 12 16 20 20 19 24 26 21 17 20 24 23 23 25 27 27 27 26 25 25 26 27 26 25 22 18 15 13 11 9 9 9 9 8 8 9 9 8 5 1 356 345 327 310 293 274 256 239 230 227 223 219 216 211 207 203 200 197 195 192 187 185 185
180 179 178 181 182 175 153 122 89 29 7 6 5 5 7 8 11 14 14 12 14 15 16 19 23 23 23 28 30 24 21 23 25 25 25 26 26 26 26 26 25 25 26 27 26 26 24 20 17 14 13 11 11 12 12 10 9 9 9 9 8 5 1 353 335 313 294 274 251 230 220 218 217 217 216 213 209 205 201 198 196 194 191 189 188
178 177 179 181 179 170 154 132 105 37 17 10 5 8 11 12 15 17 16 16 19 20 21 24 26 25 26 29 29 25 24 25 26 26 26 26 26 26 26 26 26 26 27 27 27 27 25 22 18 17 15 13 12 13 13 12 10 9 8 8 7 6 3 359 348 323 295 275 254 230 217 212 212 214 215 213 210 207 203 199 197 195 194 192 190
177 176 180 181 177 170 158 142 116 65 26 15 13 14 15 16 18 18 16 17 20 22 24 26 27 27 27 27 26 25 25 25 26 27 26 26 26 26 26 26 26 27 28 28 28 28 27 24 21 19 17 15 13 14 15 14 12 11 9 8 7 6 4 1 356 342 312 281 259 238 221 212 210 213 215 212 208 207 205 201 198 196 195 194 192
176 178 180 179 173 168 162 150 122 84 44 26 21 21 20 20 21 20 19 19 21 23 25 26 26 27 27 26 26 25 25 25 26 25 25 25 26 25 25 24 24 25 27 29 30 31 30 27 24 23 21 19 17 17 18 17 16 13 11 9 8 8 6 3 358 351 335 304 270 246 230 218 210 211 214 214 209 206 204 202 199 197 195 194 193
178 180 180 177 172 167 164 157 133 100 67 48 37 28 23 24 24 24 23 22 23 26 27 26 27 28 27 26 26 26 25 24 24 23 23 24 24 24 24 24 23 23 25 26 29 32 32 30 27 25 23 21 19 19 20 20 19 17 14 12 11 10 8 5 360 353 343 326 295 258 237 226 217 211 212 215 213 209 206 204 202 198 196 195 195
179 180 179 176 173 168 167 162 145 127 96 70 53 35 26 27 29 30 29 28 29 31 30 28 29 29 27 27 27 26 25 23 22 21 21 21 21 22 23 23 23 22 22 23 27 30 32 32 29 26 24 22 20 19 20 21 20 19 17 16 14 13 12 10 5 359 350 338 318 281 246 231 223 215 212 215 216 213 210 207 204 201 198 198 197
180 180 178 177 173 169 168 165 156 146 128 102 74 44 33 32 34 36 36 35 35 35 33 31 31 31 30 29 28 26 25 23 21 20 19 18 18 19 20 20 21 20 19 21 24 28 31 32 31 28 27 25 22 21 21 21 21 20 19 19 18 18 17 15 13 9 4 355 337 309 268 239 227 220 215 215 217 216 212 208 205 203 202 201 199
181 181 178 176 173 170 168 167 167 166 156 139 119 71 47 41 41 44 43 41 40 39 36 34 33 33 32 31 30 28 27 25 22 21 19 18 18 18 18 18 19 19 18 19 22 25 29 32 32 29 28 27 25 22 21 20 21 21 21 21 21 21 20 20 19 18 17 15 3 338 296 250 229 221 216 215 218 219 216 211 208 205 204 204 202
181 182 180 176 173 171 172 172 172 172 171 166 152 120 74 54 50 49 46 42 41 41 40 37 37 36 35 33 31 30 28 27 25 24 22 20 19 19 19 19 19 19 18 18 20 23 27 31 33 31 30 28 26 23 21 21 21 21 21 21 21 22 23 24 24 24 24 26 28 21 355 255 223 216 214 213 215 218 218 215 212 209 206 204 203
181 181 179 176 174 173 175 176 173 173 178 178 162 141 109 77 61 53 47 42 39 40 39 38 37 36 35 34 32 30 28 27 25 24 23 22 21 20 20 20 21 21 20 19 19 21 24 29 32 33 31 29 27 23 21 21 21 21 21 21 22 23 24 27 28 28 29 31 35 38 40 52 200 206 207 207 207 210 212 213 213 212 209 206 205
182 181 178 178 178 177 178 178 176 176 180 178 165 156 140 105 76 60 49 42 36 35 37 37 36 35 34 32 30 29 28 26 25 23 22 21 21 21 21 21 21 22 21 20 18 19 22 26 30 32 32 31 29 23 19 19 21 21 21 22 23 24 26 29 30 32 33 35 38 43 47 54 90 171 190 196 198 199 200 203 206 208 208 208 207